Regional Weather Roundup
Issued by NWS

Home | Current Version | Previous Version | Text Only | Print | Product List | Glossary Off
Versions: 1 2 3 4 5 6 7 8 9 10 11 12 13 14 15 16 17 18 19 20 21 22 23 24 25 26 27 28 29 30 31 32 33 34 35 36 37 38 39 40 41 42 43 44 45 46 47 48 49 50

000
ASUS43 KLOT 270312
RWRIL

ILLINOIS REGIONAL WEATHER ROUNDUP
NATIONAL WEATHER SERVICE CHICAGO/ROMEOVILLE IL
1000 PM CDT TUE MAY 26 2015

NOTE: "FAIR" INDICATES FEW OR NO CLOUDS BELOW 12,000 FEET WITH NO
SIGNIFICANT WEATHER AND/OR OBSTRUCTIONS TO VISIBILITY.

* THESE STATIONS ARE NOT UNDER NWS QUALITY CONTROL. THEY ALSO MAY NOT
  REPORT WEATHER SUCH AS PRECIPITATION OR FOG.

ILZ001-002-007-009-015-016-024-270400-
NORTHWEST ILLINOIS

CITY           SKY/WX    TMP DP  RH WIND       PRES   REMARKS
MOLINE         PTCLDY    65  61  87 SW5       29.82R
STERLING*      CLOUDY    64  63  94 SW8G18    29.83R
SAVANNA*       LGT RAIN  69  61  74 W6        29.81R
$$

ILZ003-004-008-010-011-017-018-270400-
NORTH CENTRAL ILLINOIS

CITY           SKY/WX    TMP DP  RH WIND       PRES   REMARKS
ROCKFORD       CLOUDY    67  60  78 SW13      29.84R
FREEPORT*      CLOUDY    65  60  85 SW8       29.83R
ROCHELLE*      RAIN      65  62  90 S7        29.84R
DE KALB*       CLEAR     62  59  91 S9        29.85R
PERU*          CLOUDY    68  62  80 S9        29.85S
$$

ILZ005-006-012>014-019>023-270400-
NORTHEAST ILLINOIS

CITY           SKY/WX    TMP DP  RH WIND       PRES   REMARKS
CHICAGO-OHARE  PTCLDY    67  60  78 S8        29.84R
CHICAGO-MIDWAY PTCLDY    70  60  70 S10G20    29.85R
AURORA         MOCLDY    68  60  75 S7        29.85R
LANSING*       MOCLDY    66  58  75 S7        29.88R
JOLIET*        CLOUDY    70  63  78 S7        29.87R
WAUKEGAN       CLEAR     66  59  78 SW9       29.81R
DUPAGE AIRPORT PTCLDY    66  60  81 S6        29.84R
KANKAKEE*      CLEAR     67  63  84 S10G18    29.91R
WHEELING       CLEAR     68  60  75 SW9       29.85R
MORRIS*        DRIZZLE   69  62  78 SW12      29.86R
ROMEOVILLE*    PTCLDY    67  60  80 SW8       29.86S
NORTHERLY ISL    N/A     70  58  65 S5          N/A
$$

LMZ740>746-270400-
SOUTHERN LAKE MICHIGAN

STATION/POSITION SKY/WX   TEMP    WIND        PRES    VSBY  WAVE
                          AIR SEA DIR/SP/G                  HT/PER
                          (F)     (DEG/KT/KT) (MB)    (MI)  (FT/S)
SOUTHERN BUOY              47 38  200/ 14/ 14 1010.1R         2/ 4
HARRISON CRIB              70     220/ 17/ 21   N/A
BURNHAM HARBOR             70     180/  3/  9   N/A
CALUMET HARBOR             71     210/  8/ 13   N/A
BURNS HARBOR               69     200/ 11/ 15 1011.5R
MICHIGAN CITY              69     180/ 16/ 18   N/A
MICHIGAN CITY 6N           62 52  220/ 10/ 14   N/A           2/ 4
ST. JOSEPH                 61 55  230/ 10/ 12   N/A           2/ 3
$$

ILZ025>027-034>036-040-047-049-050-058-095>099-270400-
WEST-CENTRAL ILLINOIS

CITY           SKY/WX    TMP DP  RH WIND       PRES   REMARKS
QUINCY         CLEAR     70  61  73 SW9       29.89R
GALESBURG*     CLOUDY    66  62  87 SW8       29.85R
MACOMB*        LGT RAIN  69  64  83 W8        29.88R
JACKSONVILLE*  MOCLDY    73  62  67 S10       29.91R
PITTSFIELD*    PTCLDY    72  61  68 S9        29.92R
$$

ILZ028>032-037-038-041>044-048-051>054-059>061-270400-
CENTRAL ILLINOIS

CITY           SKY/WX    TMP DP  RH WIND       PRES   REMARKS
PONTIAC        PTCLDY    70  65  82 S14G21    29.89R
BLOOMINGTON    CLEAR     69  64  84 S15       29.92R
DECATUR        PTCLDY    70  61  73 S13       29.94R
PEORIA         MOCLDY    73  60  63 S15       29.86R
LACON*         MOCLDY    69  60  72 S7        29.85R
LINCOLN*       PTCLDY    71  62  75 S9        29.89R
SPRINGFIELD    PTCLDY    73  61  65 S14       29.91R
TAYLORVILLE    CLEAR     68  63  83 S12       29.95R
$$

ILZ033-039-045-046-055>057-062-063-270400-
EAST-CENTRAL ILLINOIS

CITY           SKY/WX    TMP DP  RH WIND       PRES   REMARKS
CHAMPAIGN      CLEAR     67  61  81 S10       29.95R
DANVILLE*      CLEAR     68  61  78 SW9       29.93R
RANTOUL*       CLEAR     70  63  78 S10       29.94R
MATTOON        CLEAR     69  60  73 S7        29.97R
PARIS*         CLEAR     69  59  71 S8        29.99R
$$

ILZ079-100>102-270400-
SOUTHWEST ILLINOIS

CITY           SKY/WX    TMP DP  RH WIND       PRES   REMARKS
ALTON          PTCLDY    72  64  78 S7        29.95S
BELLEVILLE     CLEAR     68  64  84 S9        29.97R
CAHOKIA*       CLEAR     71  61  70 S7        29.97R
SPARTA*        CLEAR     69  61  76 S6        30.01R
$$

ILZ064>066-069>071-074>076-080>082-084>086-088>090-092>094-270400-
SOUTH-CENTRAL ILLINOIS

CITY           SKY/WX    TMP DP  RH WIND       PRES   REMARKS
CARBONDALE     CLEAR     68  62  81 S7        30.03R
CAIRO*         CLEAR     69  64  84 S6        30.06R
EFFINGHAM*     CLEAR     69  56  64 S5        30.01R
MARION         CLEAR     68  64  88 S6        30.04R
MT. VERNON     CLEAR     66  59  77 S6        30.03R
CENTRALIA*     FAIR      67  59  74 S9        30.01R
SALEM*         CLEAR     71  60  67 S7        30.00R
METROPOLIS*    CLEAR     69  63  81 S6        30.06R
$$

ILZ067-068-072-073-078-083-087-091-270400-
SOUTHEAST ILLINOIS

CITY           SKY/WX    TMP DP  RH WIND       PRES   REMARKS
LAWRENCEVILLE  CLEAR     70  60  70 SW9       30.02R
FLORA*         CLEAR     69  61  76 S9        30.01R
FAIRFIELD*     CLEAR     70  63  77 S8        30.02R
HARRISBURG*    CLEAR     69  64  83 SW6       30.05R
ROBINSON*      CLEAR     70  60  70 SW10      30.01R
CARMI*         CLEAR     70  57  64 S9        30.03R
$$

ABBREVIATIONS USED IN REMARKS
   TC - TEMPERATURE IN CELSIUS
  WCI - WIND CHILL INDEX
   HX - HEAT INDEX
  VSB - VISIBILITY
$$




USA.gov is the U.S. government's official web portal to all federal, state and local government web resources and services.